Time,TemperatureF,DewpointF,PressureIn,WindDirection,WindDirectionDegrees,WindSpeedMPH,WindSpeedGustMPH,Humidity,HourlyPrecipIn,Conditions,Clouds,dailyrainin,SoftwareType,DateUTC
2013-02-06 00:02:00,29.0,26.0,-100.00,WSW,255,9.0,14.0,90,0.00,,,-99.99,,2013-02-06 05:02:00,
2013-02-06 00:12:00,29.0,26.0,-100.00,WSW,255,7.0,13.0,89,0.00,,,-99.99,,2013-02-06 05:12:00,
2013-02-06 00:22:00,29.0,26.0,-100.00,WSW,255,11.0,14.0,88,0.00,,,-99.99,,2013-02-06 05:22:00,
2013-02-06 00:32:00,29.0,26.0,-100.00,WSW,255,7.0,18.0,87,0.00,,,-99.99,,2013-02-06 05:32:00,
2013-02-06 00:41:00,29.0,26.0,-100.00,West,265,7.0,14.0,87,0.00,,,-99.99,,2013-02-06 05:41:00,
2013-02-06 00:52:00,29.0,26.0,-100.00,West,260,9.0,12.0,87,0.00,,,-99.99,,2013-02-06 05:52:00,
2013-02-06 01:01:00,29.0,26.0,-100.00,West,265,7.0,12.0,87,0.00,,,-99.99,,2013-02-06 06:01:00,
2013-02-06 01:11:00,29.0,26.0,-100.00,West,260,8.0,16.0,87,0.00,,,-99.99,,2013-02-06 06:11:00,
2013-02-06 01:21:00,29.0,26.0,-100.00,West,260,11.0,15.0,87,0.00,,,-99.99,,2013-02-06 06:21:00,
2013-02-06 01:32:00,29.0,26.0,-100.00,West,270,11.0,16.0,86,0.00,,,-99.99,,2013-02-06 06:32:00,
2013-02-06 01:42:00,29.0,26.0,-100.00,WSW,255,9.0,16.0,86,0.00,,,-99.99,,2013-02-06 06:42:00,
2013-02-06 01:51:00,29.0,25.0,-100.00,West,260,7.0,15.0,86,0.00,,,-99.99,,2013-02-06 06:51:00,
2013-02-06 02:02:00,29.0,25.0,-100.00,West,265,11.0,19.0,87,0.00,,,-99.99,,2013-02-06 07:02:00,
2013-02-06 02:11:00,28.0,25.0,-100.00,West,275,10.0,17.0,87,0.00,,,-99.99,,2013-02-06 07:11:00,
2013-02-06 02:22:00,28.0,25.0,-100.00,West,270,12.0,17.0,87,0.00,,,-99.99,,2013-02-06 07:22:00,
2013-02-06 02:32:00,28.0,25.0,-100.00,West,265,11.0,16.0,87,0.00,,,-99.99,,2013-02-06 07:32:00,
2013-02-06 02:42:00,28.0,25.0,-100.00,West,280,12.0,16.0,88,0.00,,,-99.99,,2013-02-06 07:42:00,
2013-02-06 02:51:00,28.0,25.0,-100.00,West,270,12.0,16.0,88,0.00,,,-99.99,,2013-02-06 07:51:00,
2013-02-06 03:01:00,28.0,25.0,-100.00,West,270,10.0,16.0,88,0.00,,,-99.99,,2013-02-06 08:01:00,
2013-02-06 03:11:00,28.0,25.0,-100.00,West,270,10.0,16.0,88,0.00,,,-99.99,,2013-02-06 08:11:00,
2013-02-06 03:21:00,27.0,25.0,-100.00,WSW,255,6.0,11.0,89,0.00,,,-99.99,,2013-02-06 08:21:00,
2013-02-06 03:32:00,27.0,24.0,-100.00,WNW,285,7.0,13.0,89,0.00,,,-99.99,,2013-02-06 08:32:00,
2013-02-06 03:42:00,27.0,25.0,-100.00,West,265,5.0,11.0,89,0.00,,,-99.99,,2013-02-06 08:42:00,
2013-02-06 03:53:00,27.0,24.0,-100.00,WSW,255,8.0,11.0,88,0.00,,,-99.99,,2013-02-06 08:53:00,
2013-02-06 04:02:00,27.0,24.0,-100.00,West,260,10.0,15.0,87,0.00,,,-99.99,,2013-02-06 09:02:00,
2013-02-06 04:11:00,27.0,24.0,-100.00,West,260,7.0,16.0,86,0.00,,,-99.99,,2013-02-06 09:11:00,
2013-02-06 04:21:00,27.0,24.0,-100.00,West,270,9.0,14.0,87,0.00,,,-99.99,,2013-02-06 09:21:00,
2013-02-06 04:32:00,27.0,24.0,-100.00,West,260,7.0,11.0,87,0.00,,,-99.99,,2013-02-06 09:32:00,
2013-02-06 04:41:00,27.0,24.0,-100.00,West,270,8.0,12.0,86,0.00,,,-99.99,,2013-02-06 09:41:00,
2013-02-06 04:52:00,27.0,24.0,-100.00,West,265,7.0,12.0,86,0.00,,,-99.99,,2013-02-06 09:52:00,
2013-02-06 05:01:00,27.0,24.0,-100.00,West,280,6.0,10.0,86,0.00,,,-99.99,,2013-02-06 10:01:00,
2013-02-06 05:11:00,27.0,24.0,-100.00,West,265,6.0,9.0,86,0.00,,,-99.99,,2013-02-06 10:11:00,
2013-02-06 05:32:00,27.0,23.0,-100.00,West,270,6.0,9.0,85,0.00,,,-99.99,,2013-02-06 10:32:00,
2013-02-06 05:42:00,27.0,23.0,-100.00,West,270,5.0,8.0,85,0.00,,,-99.99,,2013-02-06 10:42:00,
2013-02-06 05:52:00,27.0,23.0,-100.00,West,270,5.0,10.0,85,0.00,,,-99.99,,2013-02-06 10:52:00,
2013-02-06 06:01:00,27.0,23.0,-100.00,West,275,6.0,9.0,85,0.00,,,-99.99,,2013-02-06 11:01:00,
2013-02-06 06:11:00,27.0,23.0,-100.00,WSW,255,4.0,11.0,84,0.00,,,-99.99,,2013-02-06 11:11:00,
2013-02-06 06:22:00,27.0,23.0,-100.00,WSW,255,4.0,10.0,83,0.00,,,-99.99,,2013-02-06 11:22:00,
2013-02-06 06:32:00,27.0,21.0,-100.00,West,270,7.0,9.0,79,0.00,,,-99.99,,2013-02-06 11:32:00,
2013-02-06 06:42:00,27.0,22.0,-100.00,West,260,4.0,9.0,79,0.00,,,-99.99,,2013-02-06 11:42:00,
2013-02-06 06:52:00,27.0,22.0,-100.00,West,265,4.0,6.0,79,0.00,,,-99.99,,2013-02-06 11:52:00,
2013-02-06 07:02:00,27.0,22.0,-100.00,West,265,4.0,6.0,80,0.00,,,-99.99,,2013-02-06 12:02:00,
2013-02-06 07:12:00,27.0,22.0,-100.00,West,260,2.0,7.0,81,0.00,,,-99.99,,2013-02-06 12:12:00,
2013-02-06 07:22:00,27.0,22.0,-100.00,WSW,255,2.0,4.0,82,0.00,,,-99.99,,2013-02-06 12:22:00,
2013-02-06 07:32:00,27.0,23.0,-100.00,West,265,3.0,5.0,84,0.00,,,-99.99,,2013-02-06 12:32:00,
2013-02-06 07:42:00,27.0,23.0,-100.00,West,275,4.0,6.0,83,0.00,,,-99.99,,2013-02-06 12:42:00,
2013-02-06 07:52:00,27.0,23.0,-100.00,West,270,4.0,6.0,83,0.00,,,-99.99,,2013-02-06 12:52:00,
2013-02-06 08:02:00,26.0,22.0,-100.00,NW,305,6.0,11.0,82,0.00,,,-99.99,,2013-02-06 13:02:00,
2013-02-06 08:12:00,25.0,20.0,-100.00,NW,320,7.0,12.0,81,0.00,,,-99.99,,2013-02-06 13:12:00,
2013-02-06 08:22:00,24.0,19.0,-100.00,NW,315,9.0,12.0,79,0.00,,,-99.99,,2013-02-06 13:22:00,
2013-02-06 08:32:00,24.0,18.0,-100.00,NW,315,6.0,10.0,78,0.00,,,-99.99,,2013-02-06 13:32:00,
2013-02-06 08:42:00,24.0,19.0,-100.00,NW,320,4.0,11.0,79,0.00,,,-99.99,,2013-02-06 13:42:00,
2013-02-06 08:52:00,24.0,19.0,-100.00,NW,325,2.0,7.0,80,0.00,,,-99.99,,2013-02-06 13:52:00,
2013-02-06 09:02:00,24.0,19.0,-100.00,NNW,335,2.0,5.0,80,0.00,,,-99.99,,2013-02-06 14:02:00,
2013-02-06 09:11:00,24.0,19.0,-100.00,NW,320,2.0,6.0,78,0.00,,,-99.99,,2013-02-06 14:11:00,
2013-02-06 09:22:00,24.0,18.0,-100.00,North,0,4.0,7.0,76,0.00,,,-99.99,,2013-02-06 14:22:00,
2013-02-06 09:32:00,24.0,18.0,-100.00,NW,325,2.0,6.0,74,0.00,,,-99.99,,2013-02-06 14:32:00,
2013-02-06 09:42:00,25.0,17.0,-100.00,North,10,3.0,6.0,72,0.00,,,-99.99,,2013-02-06 14:42:00,
2013-02-06 09:52:00,25.0,17.0,-100.00,NNW,340,4.0,6.0,70,0.00,,,-99.99,,2013-02-06 14:52:00,
2013-02-06 10:02:00,25.0,15.0,-100.00,NW,315,6.0,9.0,67,0.00,,,-99.99,,2013-02-06 15:02:00,
2013-02-06 10:11:00,25.0,17.0,-100.00,NNE,15,3.0,8.0,69,0.00,,,-99.99,,2013-02-06 15:11:00,
2013-02-06 10:21:00,25.0,16.0,-100.00,NW,325,3.0,7.0,67,0.00,,,-99.99,,2013-02-06 15:21:00,
2013-02-06 10:32:00,25.0,15.0,-100.00,NNW,345,6.0,8.0,64,0.00,,,-99.99,,2013-02-06 15:32:00,
2013-02-06 10:42:00,26.0,14.0,-100.00,NNW,340,4.0,8.0,58,0.00,,,-99.99,,2013-02-06 15:42:00,
2013-02-06 10:52:00,27.0,14.0,-100.00,NE,35,4.0,9.0,57,0.00,,,-99.99,,2013-02-06 15:52:00,
2013-02-06 11:01:00,27.0,15.0,-100.00,North,0,4.0,9.0,58,0.00,,,-99.99,,2013-02-06 16:01:00,
2013-02-06 11:11:00,27.0,15.0,-100.00,North,0,4.0,9.0,58,0.00,,,-99.99,,2013-02-06 16:11:00,
2013-02-06 11:21:00,28.0,14.0,-100.00,NW,315,3.0,9.0,56,0.00,,,-99.99,,2013-02-06 16:21:00,
2013-02-06 11:32:00,29.0,15.0,-100.00,NNE,20,2.0,7.0,55,0.00,,,-99.99,,2013-02-06 16:32:00,
2013-02-06 11:42:00,29.0,15.0,-100.00,NNE,30,3.0,6.0,54,0.00,,,-99.99,,2013-02-06 16:42:00,
2013-02-06 11:52:00,29.0,14.0,-100.00,NNE,25,2.0,6.0,53,0.00,,,-99.99,,2013-02-06 16:52:00,
2013-02-06 12:02:00,30.0,14.0,-100.00,North,0,1.0,5.0,49,0.00,,,-99.99,,2013-02-06 17:02:00,
2013-02-06 12:11:00,31.0,14.0,-100.00,NNE,30,1.0,6.0,49,0.00,,,-99.99,,2013-02-06 17:11:00,
2013-02-06 12:22:00,30.0,13.0,-100.00,North,10,2.0,5.0,48,0.00,,,-99.99,,2013-02-06 17:22:00,
2013-02-06 12:32:00,31.0,14.0,-100.00,SE,145,0.0,4.0,49,0.00,,,-99.99,,2013-02-06 17:32:00,
2013-02-06 12:42:00,29.0,14.0,-100.00,NNW,340,4.0,6.0,53,0.00,,,-99.99,,2013-02-06 17:42:00,
2013-02-06 12:52:00,31.0,14.0,-100.00,NNW,335,1.0,6.0,48,0.00,,,-99.99,,2013-02-06 17:52:00,
2013-02-06 13:02:00,31.0,15.0,-100.00,NW,315,3.0,6.0,50,0.00,,,-99.99,,2013-02-06 18:02:00,
2013-02-06 13:11:00,31.0,16.0,-100.00,West,260,2.0,6.0,52,0.00,,,-99.99,,2013-02-06 18:11:00,
2013-02-06 13:23:00,31.0,16.0,-100.00,NW,320,2.0,6.0,52,0.00,,,-99.99,,2013-02-06 18:23:00,
2013-02-06 13:32:00,31.0,16.0,-100.00,NW,320,2.0,6.0,52,0.00,,,-99.99,,2013-02-06 18:32:00,
2013-02-06 13:42:00,31.0,14.0,-100.00,North,0,3.0,4.0,49,0.00,,,-99.99,,2013-02-06 18:42:00,
2013-02-06 13:52:00,32.0,15.0,-100.00,NW,310,3.0,5.0,49,0.00,,,-99.99,,2013-02-06 18:52:00,
2013-02-06 14:02:00,33.0,16.0,-100.00,NW,315,1.0,3.0,48,0.00,,,-99.99,,2013-02-06 19:02:00,
2013-02-06 14:11:00,33.0,16.0,-100.00,NW,305,1.0,2.0,49,0.00,,,-99.99,,2013-02-06 19:11:00,
2013-02-06 14:21:00,32.0,15.0,-100.00,ENE,65,2.0,4.0,49,0.00,,,-99.99,,2013-02-06 19:21:00,
2013-02-06 14:32:00,32.0,16.0,-100.00,East,85,4.0,8.0,49,0.00,,,-99.99,,2013-02-06 19:32:00,
2013-02-06 14:42:00,32.0,16.0,-100.00,East,85,4.0,8.0,49,0.00,,,-99.99,,2013-02-06 19:42:00,
2013-02-06 14:52:00,33.0,15.0,-100.00,SSE,155,3.0,6.0,47,0.00,,,-99.99,,2013-02-06 19:52:00,
2013-02-06 15:01:00,33.0,17.0,-100.00,SSW,205,1.0,6.0,50,0.00,,,-99.99,,2013-02-06 20:01:00,
2013-02-06 15:11:00,33.0,16.0,-100.00,ESE,105,3.0,5.0,50,0.00,,,-99.99,,2013-02-06 20:11:00,
2013-02-06 15:21:00,32.0,15.0,-100.00,ENE,70,2.0,4.0,47,0.00,,,-99.99,,2013-02-06 20:21:00,
2013-02-06 15:32:00,32.0,16.0,-100.00,East,90,1.0,6.0,51,0.00,,,-99.99,,2013-02-06 20:32:00,
2013-02-06 15:42:00,33.0,17.0,-100.00,SSE,160,2.0,9.0,51,0.00,,,-99.99,,2013-02-06 20:42:00,
2013-02-06 15:52:00,31.0,17.0,-100.00,SE,135,4.0,7.0,55,0.00,,,-99.99,,2013-02-06 20:52:00,
2013-02-06 16:02:00,31.0,17.0,-100.00,SE,135,4.0,7.0,53,0.00,,,-99.99,,2013-02-06 21:02:00,
2013-02-06 16:11:00,32.0,17.0,-100.00,South,175,2.0,9.0,54,0.00,,,-99.99,,2013-02-06 21:11:00,
2013-02-06 16:21:00,31.0,18.0,-100.00,SSW,195,4.0,7.0,56,0.00,,,-99.99,,2013-02-06 21:21:00,
2013-02-06 16:32:00,31.0,18.0,-100.00,SE,140,3.0,8.0,57,0.00,,,-99.99,,2013-02-06 21:32:00,
2013-02-06 16:42:00,31.0,18.0,-100.00,East,90,2.0,6.0,56,0.00,,,-99.99,,2013-02-06 21:42:00,
2013-02-06 16:51:00,30.0,18.0,-100.00,ESE,120,5.0,9.0,58,0.00,,,-99.99,,2013-02-06 21:51:00,
2013-02-06 17:01:00,30.0,17.0,-100.00,SE,140,4.0,7.0,58,0.00,,,-99.99,,2013-02-06 22:01:00,
2013-02-06 17:11:00,30.0,17.0,-100.00,SSE,160,4.0,7.0,58,0.00,,,-99.99,,2013-02-06 22:11:00,
2013-02-06 17:21:00,30.0,18.0,-100.00,ESE,105,4.0,7.0,60,0.00,,,-99.99,,2013-02-06 22:21:00,
2013-02-06 17:32:00,29.0,17.0,-100.00,East,100,5.0,7.0,60,0.00,,,-99.99,,2013-02-06 22:32:00,
2013-02-06 17:42:00,29.0,18.0,-100.00,SE,125,2.0,6.0,60,0.00,,,-99.99,,2013-02-06 22:42:00,
2013-02-06 17:52:00,29.0,18.0,-100.00,East,90,3.0,5.0,62,0.00,,,-99.99,,2013-02-06 22:52:00,
2013-02-06 18:01:00,28.0,18.0,-100.00,ESE,110,3.0,6.0,63,0.00,,,-99.99,,2013-02-06 23:01:00,
2013-02-06 18:11:00,28.0,17.0,-100.00,East,100,2.0,5.0,65,0.00,,,-99.99,,2013-02-06 23:11:00,
2013-02-06 18:21:00,27.0,17.0,-100.00,East,90,2.0,4.0,66,0.00,,,-99.99,,2013-02-06 23:21:00,
2013-02-06 18:32:00,26.0,17.0,-100.00,East,95,2.0,3.0,67,0.00,,,-99.99,,2013-02-06 23:32:00,
2013-02-06 18:42:00,26.0,17.0,-100.00,East,95,3.0,6.0,68,0.00,,,-99.99,,2013-02-06 23:42:00,
2013-02-06 18:52:00,26.0,17.0,-100.00,East,90,4.0,5.0,68,0.00,,,-99.99,,2013-02-06 23:52:00,
2013-02-06 19:02:00,26.0,17.0,-100.00,East,95,4.0,6.0,69,0.00,,,-99.99,,2013-02-07 00:02:00,
2013-02-06 19:11:00,26.0,17.0,-100.00,East,95,4.0,6.0,70,0.00,,,-99.99,,2013-02-07 00:11:00,
2013-02-06 19:21:00,26.0,17.0,-100.00,East,90,2.0,7.0,70,0.00,,,-99.99,,2013-02-07 00:21:00,
2013-02-06 19:32:00,24.0,17.0,-100.00,ENE,65,2.0,4.0,71,0.00,,,-99.99,,2013-02-07 00:32:00,
2013-02-06 19:42:00,24.0,17.0,-100.00,ENE,70,1.0,4.0,73,0.00,,,-99.99,,2013-02-07 00:42:00,
2013-02-06 19:52:00,24.0,17.0,-100.00,East,80,2.0,4.0,73,0.00,,,-99.99,,2013-02-07 00:52:00,
2013-02-06 20:01:00,24.0,17.0,-100.00,ENE,65,2.0,4.0,74,0.00,,,-99.99,,2013-02-07 01:01:00,
2013-02-06 20:11:00,25.0,17.0,-100.00,East,80,3.0,5.0,73,0.00,,,-99.99,,2013-02-07 01:11:00,
2013-02-06 20:21:00,24.0,18.0,-100.00,East,95,3.0,6.0,74,0.00,,,-99.99,,2013-02-07 01:21:00,
2013-02-06 20:32:00,25.0,18.0,-100.00,ENE,75,2.0,7.0,74,0.00,,,-99.99,,2013-02-07 01:32:00,
2013-02-06 20:42:00,24.0,18.0,-100.00,ENE,70,3.0,4.0,75,0.00,,,-99.99,,2013-02-07 01:42:00,
2013-02-06 20:52:00,25.0,18.0,-100.00,ENE,75,3.0,6.0,75,0.00,,,-99.99,,2013-02-07 01:52:00,
2013-02-06 21:01:00,25.0,18.0,-100.00,ENE,75,4.0,6.0,75,0.00,,,-99.99,,2013-02-07 02:01:00,
2013-02-06 21:11:00,25.0,19.0,-100.00,East,90,3.0,6.0,75,0.00,,,-99.99,,2013-02-07 02:11:00,
2013-02-06 21:21:00,25.0,19.0,-100.00,East,90,6.0,9.0,76,0.00,,,-99.99,,2013-02-07 02:21:00,
2013-02-06 21:32:00,26.0,19.0,-100.00,East,80,4.0,9.0,75,0.00,,,-99.99,,2013-02-07 02:32:00,
2013-02-06 21:41:00,26.0,19.0,-100.00,East,80,4.0,9.0,75,0.00,,,-99.99,,2013-02-07 02:41:00,
2013-02-06 21:51:00,26.0,19.0,-100.00,East,80,4.0,9.0,75,0.00,,,-99.99,,2013-02-07 02:51:00,
2013-02-06 22:02:00,25.0,19.0,-100.00,ENE,70,2.0,7.0,76,0.00,,,-99.99,,2013-02-07 03:02:00,
2013-02-06 22:11:00,25.0,19.0,-100.00,ENE,60,3.0,7.0,76,0.00,,,-99.99,,2013-02-07 03:11:00,
2013-02-06 22:21:00,25.0,18.0,-100.00,East,80,4.0,6.0,76,0.00,,,-99.99,,2013-02-07 03:21:00,
2013-02-06 22:32:00,24.0,18.0,-100.00,East,80,4.0,7.0,77,0.00,,,-99.99,,2013-02-07 03:32:00,
2013-02-06 22:42:00,24.0,18.0,-100.00,East,85,5.0,8.0,76,0.00,,,-99.99,,2013-02-07 03:42:00,
2013-02-06 22:52:00,24.0,17.0,-100.00,East,85,4.0,7.0,76,0.00,,,-99.99,,2013-02-07 03:52:00,
2013-02-06 23:01:00,24.0,17.0,-100.00,ENE,75,4.0,6.0,76,0.00,,,-99.99,,2013-02-07 04:01:00,
2013-02-06 23:11:00,23.0,17.0,-100.00,ENE,65,4.0,7.0,76,0.00,,,-99.99,,2013-02-07 04:11:00,
2013-02-06 23:22:00,23.0,17.0,-100.00,ENE,70,6.0,9.0,75,0.00,,,-99.99,,2013-02-07 04:22:00,
2013-02-06 23:32:00,23.0,17.0,-100.00,ENE,70,6.0,9.0,75,0.00,,,-99.99,,2013-02-07 04:32:00,
2013-02-06 23:41:00,23.0,16.0,-100.00,East,80,6.0,10.0,74,0.00,,,-99.99,,2013-02-07 04:41:00,
2013-02-06 23:53:00,24.0,16.0,-100.00,ENE,75,6.0,9.0,72,0.00,,,-99.99,,2013-02-07 04:53:00,